Showing default

SPHEREX, 63182

Orbit data source: Space-Track

SPHEREX, 63182 is an American payload satellite in SSO that was launched on Wed, 12 Mar 2025 UTC via an FALCON 9 launch vehicle from the Air Force Western Test Range (AFWTR). Payload-class satellites include a variety of spacecraft equipped with specific instruments for various scientific and technological missions. These include communications satellites like Starlink; space stations such as the ISS; scientific satellites like the Hubble; Earth observation satellites from companies like Planet Labs, Umbra, and HawkEye 360; GPS; miniature CubeSats for education and research; and military/defense satellites.

Loading next visibility...
Identifier
63182, 2025-047E
Orbit
SSO
Country
Flag of USUS
Related business
Manufacturer
SWRI
Mission
Operational Civil Astronomy
Bus & Motor
PUNCH, Unknown motor
Mass
64 kg wet, 64 kg dry
Launch date (UTC)
2025-03-12 (7 months ago)
Launch vehicle
FALCON 9
Launch site
Air Force Western Test Range (AFWTR)
Object type
Payload
Rocket body
Debris
Shape & HBR
Box + 1 Pan, 2.7 m
Radar Cross Section
0.625 m², Large (>1 m²)

Expand to show TLE details & history
Last TLE update: 5 hours ago

TLE from 5 hours ago
0 SPHEREX
1 63182U 25047E   25291.27407253  .00002095  00000-0  33147-3 0  9994
2 63182  97.9554 115.7028 0009370 246.9614 113.0607 14.73299416 32410
Epoch: 2025-10-18T06:34Z
TLE epoch observation values (Epoch: 2025-10-18T06:34:39.866Z)
Latitude
0.00003°
Longitude
-9.97076°
Altitude
656.151 km
Speed
7.528 km/s
True Right ascension
07h 42m 48s
True Declination
0° 00' 00"
Sunlit
Object was in daylight at epoch
Visualization orbit readout
Latitude
Unknown
Longitude
Unknown
Altitude
Unknown
Speed
Unknown
Apparent Right ascension
Unknown
Apparent Declination
Unknown
Sunlit
N/A
Visualization observer readout
Local Sidereal Time
06:37:41
Azimuth
Unknown
Elevation
Unknown
Doppler factor
Unknown
Orbital elements
Apogee altitude
654.19 km
Perigee altitude
641.024 km
Semi-major axis
7,025.744 km
Eccentricity
0.00094
Inclination
97.9554°
RAAN
115.7028°
Arg. of periapsis
246.9614°
True anomaly
113.15945°
Mean anomaly
113.0607°
Eccentric anomaly
113.11008°
Mean motion
3.68557 °/min
Orbital period
97.68 mins
BSTAR
0.00033147
Loading maneuver chart data...
Computing Atmospheric mass density...
Loading historical data...
Loading historical data...
Loading historical data...
Loading historical data...
Loading historical data...
Loading historical data...
Loading historical data...
Other satellites on launch #47 in the year 2025 (2025-03-12 UTC)

Documentation

Showing up to 5 results
|